• în Republica Moldova
  • Lista ţărilor
  • Pe 7 zile
  • Temperatura apei
  • Hartă satelitară
  • Meteo pe hartă
  • Widget-uri
  • user-avatar
    Intrare

    Meteo pe oră la Ischgl

    Astăzi, 27 Februarie, Luni

    Timp Temperatura Precipitaţii Vânt Presiune Umiditate
    00:00 -7°C° 0,1 mm 1 m/s 568 mmHg 91%
    01:00 -6°C° 0 mm 1 m/s 569 mmHg 89%
    02:00 -6°C° 0,1 mm 1 m/s 569 mmHg 90%
    03:00 -6°C° 0,1 mm 1 m/s 569 mmHg 92%
    04:00 -6°C° 0,1 mm 1 m/s 569 mmHg 93%
    05:00 -6°C° 0,1 mm 1 m/s 568 mmHg 93%
    06:00 -6°C° 0,1 mm 1 m/s 568 mmHg 94%
    07:00 -6°C° 0 mm 1 m/s 568 mmHg 93%
    08:00 -6°C° 0 mm 2 m/s 568 mmHg 94%
    09:00 -5°C° 0 mm 2 m/s 569 mmHg 94%
    10:00 -3°C° 0 mm 2 m/s 569 mmHg 94%
    11:00 -3°C° 0 mm 2 m/s 569 mmHg 93%
    12:00 -2°C° 0 mm 2 m/s 569 mmHg 93%
    13:00 -2°C° 0 mm 2 m/s 569 mmHg 92%
    14:00 -2°C° 0 mm 2 m/s 568 mmHg 92%
    15:00 -2°C° 0 mm 2 m/s 568 mmHg 93%
    16:00 -2°C° 0 mm 2 m/s 567 mmHg 93%
    17:00 -4°C° 0 mm 2 m/s 567 mmHg 94%
    18:00 -7°C° 0 mm 3 m/s 566 mmHg 94%
    19:00 -8°C° 0 mm 3 m/s 565 mmHg 95%
    20:00 -9°C° 0 mm 3 m/s 565 mmHg 94%
    21:00 -9°C° 0 mm 3 m/s 564 mmHg 94%
    22:00 -9°C° 0 mm 3 m/s 564 mmHg 93%
    23:00 -9°C° 0 mm 3 m/s 564 mmHg 93%

    Mâine, 28 Februarie, Marţi

    Timp Temperatura Precipitaţii Vânt Presiune Umiditate
    00:00 -9°C° 0 mm 3 m/s 564 mmHg 93%
    01:00 -9°C° 0 mm 3 m/s 563 mmHg 93%
    02:00 -8°C° 0,1 mm 3 m/s 563 mmHg 92%
    03:00 -8°C° 0,1 mm 3 m/s 562 mmHg 92%
    04:00 -8°C° 0,1 mm 3 m/s 562 mmHg 92%
    05:00 -8°C° 0,3 mm 3 m/s 562 mmHg 93%
    06:00 -8°C° 0,3 mm 3 m/s 562 mmHg 93%
    07:00 -8°C° 0,3 mm 3 m/s 562 mmHg 94%
    08:00 -7°C° 0,9 mm 3 m/s 562 mmHg 94%
    09:00 -5°C° 0,9 mm 2 m/s 562 mmHg 95%
    10:00 -5°C° 0,9 mm 2 m/s 563 mmHg 95%
    11:00 -5°C° 1,5 mm 2 m/s 562 mmHg 95%
    12:00 -5°C° 1,5 mm 2 m/s 562 mmHg 96%
    13:00 -5°C° 1,5 mm 2 m/s 561 mmHg 96%
    14:00 -5°C° 1 mm 2 m/s 561 mmHg 96%
    15:00 -4°C° 1 mm 2 m/s 560 mmHg 96%
    16:00 -4°C° 1 mm 2 m/s 559 mmHg 97%
    17:00 -5°C° 1,3 mm 2 m/s 559 mmHg 97%
    18:00 -7°C° 1,3 mm 3 m/s 559 mmHg 97%
    19:00 -8°C° 1,3 mm 3 m/s 559 mmHg 98%
    20:00 -8°C° 2 mm 3 m/s 559 mmHg 98%
    21:00 -9°C° 2 mm 3 m/s 559 mmHg 98%
    22:00 -9°C° 2 mm 2 m/s 559 mmHg 98%
    23:00 -10°C° 1,1 mm 2 m/s 559 mmHg 98%

    Poimâine, 1 Martie, Miercuri

    Timp Temperatura Precipitaţii Vânt Presiune Umiditate
    00:00 -12°C° 1,1 mm 2 m/s 559 mmHg 97%
    01:00 -13°C° 1,1 mm 2 m/s 559 mmHg 97%
    02:00 -13°C° 0,2 mm 2 m/s 559 mmHg 97%
    03:00 -14°C° 0,2 mm 2 m/s 559 mmHg 97%
    04:00 -12°C° 0,2 mm 1 m/s 559 mmHg 97%
    05:00 -14°C° 0,1 mm 2 m/s 559 mmHg 96%
    06:00 -14°C° 0,1 mm 2 m/s 560 mmHg 96%
    07:00 -14°C° 0,1 mm 2 m/s 560 mmHg 95%
    08:00 -13°C° 0 mm 2 m/s 561 mmHg 95%
    09:00 -10°C° 0 mm 2 m/s 562 mmHg 94%
    10:00 -9°C° 0 mm 2 m/s 564 mmHg 93%
    11:00 -9°C° 0,2 mm 2 m/s 564 mmHg 93%
    12:00 -8°C° 0,2 mm 2 m/s 564 mmHg 92%
    13:00 -8°C° 0,2 mm 2 m/s 565 mmHg 91%
    14:00 -8°C° 0,2 mm 2 m/s 565 mmHg 92%
    15:00 -8°C° 0,2 mm 2 m/s 566 mmHg 93%
    16:00 -8°C° 0,2 mm 2 m/s 566 mmHg 93%
    17:00 -12°C° 0 mm 2 m/s 565 mmHg 95%
    18:00 -14°C° 0 mm 2 m/s 564 mmHg 96%
    19:00 -17°C° 0 mm 2 m/s 563 mmHg 97%
    20:00 -17°C° 0 mm 2 m/s 564 mmHg 95%
    21:00 -17°C° 0 mm 2 m/s 564 mmHg 93%
    22:00 -17°C° 0 mm 2 m/s 564 mmHg 92%
    23:00 -16°C° 0 mm 2 m/s 565 mmHg 91%

    2 Martie, Joi

    Timp Temperatura Precipitaţii Vânt Presiune Umiditate
    00:00 -14°C° 0 mm 2 m/s 566 mmHg 90%
    01:00 -14°C° 0 mm 3 m/s 566 mmHg 89%
    02:00 -13°C° 0,2 mm 3 m/s 566 mmHg 90%
    03:00 -13°C° 0,2 mm 3 m/s 567 mmHg 91%
    04:00 -10°C° 0,2 mm 2 m/s 567 mmHg 91%
    05:00 -10°C° 0,2 mm 2 m/s 567 mmHg 91%
    06:00 -10°C° 0,2 mm 2 m/s 567 mmHg 91%
    07:00 -10°C° 0,2 mm 2 m/s 567 mmHg 90%
    08:00 -8°C° 0,1 mm 2 m/s 569 mmHg 92%
    09:00 -6°C° 0,1 mm 2 m/s 570 mmHg 94%
    10:00 -2°C° 0,1 mm 1 m/s 571 mmHg 96%
    11:00 -2°C° 0,2 mm 1 m/s 571 mmHg 96%
    12:00 -1°C° 0,2 mm 1 m/s 571 mmHg 97%
    13:00 -1°C° 0,2 mm 1 m/s 572 mmHg 97%
    14:00 -1°C° 0,3 mm 1 m/s 572 mmHg 97%
    15:00 -1°C° 0,3 mm 1 m/s 572 mmHg 98%
    16:00 -1°C° 0,3 mm 1 m/s 572 mmHg 98%
    17:00 -2°C° 0,3 mm 1 m/s 571 mmHg 98%
    18:00 -5°C° 0,3 mm 0 m/s 570 mmHg 98%
    19:00 -6°C° 0,3 mm 0 m/s 570 mmHg 98%
    20:00 -6°C° 0,1 mm 1 m/s 570 mmHg 98%
    21:00 -6°C° 0,1 mm 1 m/s 570 mmHg 97%
    22:00 -6°C° 0,1 mm 1 m/s 570 mmHg 97%
    23:00 -8°C° 0 mm 2 m/s 570 mmHg 96%

    3 Martie, Vineri

    Timp Temperatura Precipitaţii Vânt Presiune Umiditate
    00:00 -8°C° 0 mm 2 m/s 570 mmHg 96%
    01:00 -8°C° 0 mm 2 m/s 569 mmHg 96%
    02:00 -8°C° 0 mm 2 m/s 569 mmHg 95%
    03:00 -9°C° 0 mm 2 m/s 569 mmHg 95%
    04:00 -9°C° 0 mm 2 m/s 568 mmHg 95%
    05:00 -9°C° 0 mm 2 m/s 568 mmHg 95%
    06:00 -10°C° 0 mm 3 m/s 568 mmHg 95%
    07:00 -10°C° 0 mm 3 m/s 568 mmHg 95%
    08:00 -8°C° 0 mm 3 m/s 568 mmHg 95%
    09:00 -7°C° 0 mm 3 m/s 569 mmHg 95%
    10:00 -5°C° 0 mm 3 m/s 570 mmHg 96%
    11:00 -5°C° 0 mm 3 m/s 570 mmHg 96%
    12:00 -4°C° 0 mm 3 m/s 569 mmHg 96%
    13:00 -2°C° 0 mm 3 m/s 569 mmHg 96%
    14:00 -4°C° 0,1 mm 3 m/s 569 mmHg 96%
    15:00 -4°C° 0,1 mm 3 m/s 568 mmHg 96%
    16:00 -4°C° 0,1 mm 3 m/s 568 mmHg 95%
    17:00 -5°C° 0,1 mm 3 m/s 567 mmHg 95%
    18:00 -5°C° 0,1 mm 3 m/s 567 mmHg 95%
    19:00 -6°C° 0,1 mm 3 m/s 566 mmHg 95%
    20:00 -6°C° 0,1 mm 3 m/s 566 mmHg 95%
    21:00 -7°C° 0,1 mm 3 m/s 566 mmHg 94%
    22:00 -7°C° 0,1 mm 3 m/s 565 mmHg 94%
    23:00 -7°C° 0,2 mm 3 m/s 565 mmHg 94%

    4 Martie, Sâmbătă

    Timp Temperatura Precipitaţii Vânt Presiune Umiditate
    00:00 -7°C° 0,2 mm 3 m/s 565 mmHg 95%
    01:00 -7°C° 0,2 mm 3 m/s 565 mmHg 95%
    02:00 -8°C° 0,4 mm 3 m/s 565 mmHg 95%
    03:00 -7°C° 0,4 mm 2 m/s 565 mmHg 96%
    04:00 -7°C° 0,4 mm 2 m/s 565 mmHg 96%
    05:00 -7°C° 0,3 mm 2 m/s 566 mmHg 96%
    06:00 -7°C° 0,3 mm 2 m/s 566 mmHg 96%
    07:00 -7°C° 0,3 mm 2 m/s 566 mmHg 96%
    08:00 -6°C° 0,1 mm 2 m/s 566 mmHg 95%
    09:00 -4°C° 0,1 mm 2 m/s 567 mmHg 95%
    10:00 -4°C° 0,1 mm 3 m/s 568 mmHg 95%
    11:00 -4°C° 0,2 mm 3 m/s 568 mmHg 94%
    12:00 -2°C° 0,2 mm 3 m/s 568 mmHg 93%
    13:00 -2°C° 0,2 mm 3 m/s 568 mmHg 92%
    14:00 -2°C° 0,4 mm 3 m/s 568 mmHg 92%
    15:00 -2°C° 0,4 mm 3 m/s 568 mmHg 92%
    16:00 -2°C° 0,4 mm 3 m/s 567 mmHg 93%
    17:00 -4°C° 0,3 mm 3 m/s 567 mmHg 93%
    18:00 -5°C° 0,3 mm 3 m/s 567 mmHg 94%
    19:00 -6°C° 0,3 mm 3 m/s 566 mmHg 95%
    20:00 -6°C° 0,2 mm 3 m/s 566 mmHg 94%
    21:00 -6°C° 0,2 mm 3 m/s 566 mmHg 94%
    22:00 -6°C° 0,2 mm 3 m/s 567 mmHg 94%
    23:00 -6°C° 0,3 mm 3 m/s 567 mmHg 94%
    Arată mai mult